Location: Newark
(0.5300°S, 127.4800°E)
Time: 16:15:14
(UTC+00:00)

Vanguard 3 - Pass Details

Date: 26 September 2019
Orbit: 508 x 3262 km, 33.3° (Epoch: 20 October)

Event Time Altitude Azimuth Distance (km) Brightness Sun altitude
Rises 20:16:04 0° 273° (W) 3,750 - -16.3°
Reaches altitude 10° 20:18:51 10° 287° (WNW) 3,122 - -15.6°
Exits shadow 20:20:26 16° 298° (WNW) 2,884 9.4 -15.2°
Maximum altitude 20:25:16 25° 340° (NNW) 2,852 9.7 -14.0°
Drops below altitude 10° 20:34:59 10° 29° (NNE) 4,868 11.5 -11.6°
Sets 20:40:54 0° 41° (NE) 6,374 12.3 -10.1°
